This is the latest recevied weather packets stored in our database for station/object KB9ZI. If no packets are shown the sender has not sent any weather packets the latest 10 day(s).
| Time | Temp. | Humidity | Pressure | Rain* | Wind** | Luminosity | Snow |
|---|---|---|---|---|---|---|---|
| 1778008597 | 10.56° C | 46% | 1010.6 hPa | 0 mm | - | - | - |
| 1778008498 | 10.56° C | 49% | 1010.6 hPa | 0 mm | - | - | - |
| 1778008297 | 10.56° C | 54% | 1010.7 hPa | 0 mm | - | - | - |
| 1778008176 | 10.56° C | 54% | 1010.7 hPa | 0 mm | - | - | - |
| 1778008058 | 10.56° C | 54% | 1010.6 hPa | 0 mm | - | - | - |
| 1778007932 | 10° C | 52% | 1010.6 hPa | 0 mm | - | - | - |
| 1778007894 | 10° C | 49% | 1010.7 hPa | 0 mm | - | - | - |
| 1778007690 | 10° C | 49% | 1010.7 hPa | 0 mm | - | - | - |
| 1778007570 | 10° C | 52% | 1010.7 hPa | 0 mm | - | - | - |
| 1778007456 | 9.44° C | 50% | 1010.8 hPa | 0 mm | - | - | - |
| 1778007330 | 9.44° C | 47% | 1010.8 hPa | 0 mm | - | - | - |
| 1778007275 | 9.44° C | 48% | 1010.8 hPa | 0 mm | - | - | - |
| 1778007099 | 9.44° C | 49% | 1010.8 hPa | 0 mm | - | - | - |
| 1778007007 | 9.44° C | 48% | 1010.8 hPa | 0 mm | - | - | - |
| 1778006827 | 10° C | 46% | 1010.9 hPa | 0 mm | - | - | - |
| 1778006705 | 10° C | 47% | 1010.8 hPa | 0 mm | - | - | - |
| 1778006573 | 10° C | 50% | 1010.8 hPa | 0 mm | - | - | - |
| 1778006458 | 10° C | 49% | 1010.9 hPa | 0 mm | - | - | - |
| 1778006427 | 9.44° C | 49% | 1010.7 hPa | 0 mm | - | - | - |
| 1778006402 | 9.44° C | 47% | 1010.8 hPa | 0 mm | - | - | - |
| 1778006081 | 9.44° C | 46% | 1010.7 hPa | 0 mm | - | - | - |
| 1778005960 | 9.44° C | 46% | 1010.8 hPa | 0 mm | - | - | - |
| 1778005838 | 10° C | 45% | 1010.6 hPa | 0 mm | - | - | - |
| 1778005805 | 10° C | 44% | 1010.7 hPa | 0 mm | - | - | - |
| 1778005594 | 10.56° C | 46% | 1010.6 hPa | 0 mm | - | - | - |
* Rain latest hour (hover to see other rain measurements)
** Current wind speed in m/s (hover to see current wind gust speed)